www.pogodaiklimat.ru

Погода и климат >> Архив погоды >> Россия >> Якутия >> Иэма


ПОГОДА в Иэме

  • Прогноз погоды в Иэме
  • Монитор погоды в Иэме
  • Климат города

АРХИВ ПОГОДЫ в Иэме

Время (UTC), дата Ветер
(напр.,м/с)
 
Видим.   Явления Облачность Т
(С)
Тd
(С)
f
(%)
Тe
(С)
Тes
(С)
Комфортность P
(гПа)
Po
(гПа)
Тmin
(С)
Tmax
(С)
R
(мм)
R24
(мм)
S
(см)
15 12.09 С 1 50 км 1/0
[Ci fib]
-2.8 -3.8 93 -5 -5 1026.1 942.9
18 12.09 СВ 1 50 км 1/0
[Ci fib]
-4.2 -4.7 96 -7 -7 1027.0 943.3
21 12.09 штиль 0 50 км 1/0
[Ci fib]
-4.6 -5.2 96 -6 -6 1027.7 943.8 -5.9
00 13.09 штиль 0 50 км 3/0
[Ci fib]
+0.5 -1.4 87 -1 +3 1026.2 944.0
03 13.09 штиль 0 50 км 1/0
[Ci fib]
+6.6 +0.5 65 +6 +12 1023.3 943.1
06 13.09 штиль 0 50 км ясно +9.5 -0.6 49 +9 +12 1021.1 941.8
09 13.09 С 1 50 км 1/0
[Ci fib]
+9.3 -2.0 45 +9 +9 1020.6 941.3 +9.5
12 13.09 штиль 0 50 км 3/0
[Ci fib]
-0.5 -2.9 84 -2 -2 1023.4 941.2
15 13.09 С 2 50 км 4/0
[Ci fib]
-2.4 -4.6 85 -6 -6 1023.6 940.7
18 13.09 штиль 0 50 км 3/0
[Ci fib]
-3.2 -4.6 90 -4 -4 1023.6 940.6
21 13.09 штиль 0 50 км 8/0
[Cs]
-4.5 -5.0 96 -6 -6 1023.8 940.3 -5.0
00 14.09 штиль 0 50 км 3/0
[Ci fib]
+1.6 -0.6 85 +1 +4 1021.2 939.7
03 14.09 штиль 0 50 км 8/0
[Cs]
+7.4 0.0 59 +7 +12 1017.9 938.3
06 14.09 ЮЗ 1 50 км 9/0
[Cs]
+9.4 +0.2 53 +9 +11 1015.9 930.7
09 14.09 С 1 50 км 8/0
[Ac trans]
+7.8 -1.4 52 +8 +8 1015.4 936.4 +9.4
12 14.09 С 1 50 км 6/0
[Ac trans]
+1.7 -1.7 78 0 0 1017.2 936.1
15 14.09 С 1 50 км 8/0
[Ac trans]
+0.4 -3.2 77 -1 -1 1017.2 935.6
18 14.09 С 1 50 км 9/0
[Ac trans]
+1.4 -1.4 82 -0 -0 1016.4 935.3
21 14.09 штиль 0 50 км 9/0
[Cs]
+1.7 -0.5 85 +1 +1 1016.0 935.0 -1.0
00 15.09 З 1 50 км 3/0
[Ci fib]
+4.6 +0.1 73 +4 +6 1014.8 934.7
03 15.09 штиль 0 50 км 1/0
[Ci fib]
+8.6 -0.3 54 +8 +14 1012.4 933.5
06 15.09 З 2 50 км 1/0
[Ci fib]
+9.5 -1.0 48 +8 +10 1011.2 932.6
09 15.09 СЗ 3 50 км 1/0
[Ci fib]
+8.0 -2.1 49 +6 +6 1011.1 932.2 +9.5
12 15.09 С 1 50 км ясно -0.8 -3.3 83 -3 -3 1013.8 932.2
15 15.09 СВ 1 50 км ясно -3.8 -5.5 88 -6 -6 1014.6 932.0
18 15.09 штиль 0 50 км ясно -4.3 -5.5 91 -5 -5 1014.5 931.8
21 15.09 штиль 0 50 км 1/0
[Ac trans]
-5.8 -6.5 95 -7 -7 1014.9 931.7 -6.0
00 16.09 СЗ 1 50 км 3/0
[Ac trans Ci fib]
+1.4 -0.5 87 -0 +2 1011.5 930.7
03 16.09 штиль 0 50 км 6/0
[Ac trans]
+6.6 +0.5 65 +6 +9 1008.0 929.0
06 16.09 Ю 2 50 км 8/0
[Ac trans Ci fib]
+10.6 -0.3 47 +10 +11 1004.9 937.2
09 16.09 ЮВ 1 50 км 10/0
[Ac As]
+9.6 +1.4 57 +9 +9 1004.1 926.2 +10.6
12 16.09 штиль 0 50 км 10/0
[Ac As]
+4.7 -1.3 65 +4 +4 1004.3 925.0
15 16.09 В 3 50 км 10/0
[Ac As]
+6.3 -1.8 56 +4 +4 1001.1 922.5
18 16.09 СВ 1 20 км слабый дождь 10/0
[As op]
+3.0 +1.5 90 +1 +1 999.2 919.9
21 16.09 В 5 4000 м сильный дождь 10/10 300 м
[Frnb Ns]
+1.9 +1.6 98 -4 -4 995.7 916.4 +1.9 7
00 17.09 Ю 3 10 км дождь 10/10 300 м
[Frnb Ns]
+2.8 +2.5 98 -2 -2 994.4 915.4
03 17.09 ЮЗ 5 10 км слабый дождь 10/10 300 м
[Frnb Ns]
+4.3 +3.6 95 -1 -1 996.1 917.4
06 17.09 З 3 10 км слабый дождь со снегом 10/10 300 м
[Frnb Ns]
+1.3 +0.5 94 -3 -3 999.1 919.3
09 17.09 З 5 4000 м снег 10/10 300 м
[Frnb Ns]
-0.3 -0.9 96 -7 -7 1001.8 921.4 +4.3 11
12 17.09 З 5 4000 м снег 10/10 300 м
[Frnb Ns]
-1.4 -2.0 96 -8 -8 1005.0 923.9
15 17.09 З 5 4000 м снег 10/10 300 м
[Frnb Ns]
-1.5 -2.3 94 -8 -8 1007.3 926.0
18 17.09 З 4 4000 м снег 10/10 300 м
[Frnb Ns]
-2.0 -3.2 91 -8 -8 1009.4 927.8
21 17.09 С 3 4000 м снег 10/10 300 м
[Frnb Ns]
-2.7 -3.7 93 -8 -8 1011.3 929.4 -2.7 6 9
00 18.09 СЗ 3 4000 м снег 10/10 300 м
[Frnb Ns]
-2.6 -3.9 91 -8 -8 1013.4 931.3 -3.3
03 18.09 СЗ 1 10 км слабый снег 10/10 300 м
[Frnb Ns]
-1.6 -3.6 86 -4 -4 1014.6 932.7
06 18.09 З 1 10 км слабый снег 10/10 300 м
[Frnb Ns]
-1.2 -4.1 81 -3 -3 1015.8 933.9
09 18.09 С 1 50 км {снег} 10/0
[Ac As]
-1.6 -1.3 100 -4 -4 1017.3 935.1 -1.2 0.0
12 18.09 СВ 1 50 км {снег} 10/0
[Ac As]
-2.1 -3.9 87 -4 -4 1018.3 935.9
15 18.09 ЮВ 1 50 км 10/0
[Ac As]
-1.5 -3.2 88 -4 -4 1018.6 936.4
18 18.09 В 1 50 км 10/0
[Ac As]
-2.5 -3.8 91 -5 -5 1019.1 936.5
21 18.09 штиль 0 50 км 3/0
[Ac trans]
-3.0 -4.7 88 -4 -4 1018.7 936.0 -3.3 9
00 19.09 штиль 0 50 км 6/0
[Ac trans Ci fib]
-0.4 -3.1 82 -1 +1 1017.8 936.0
03 19.09 СВ 2 50 км 4/0
[Ac trans]
+1.3 -4.9 63 -2 +1 1016.5 935.3
06 19.09 СВ 1 50 км 4/0
[Cs]
+2.5 -3.8 63 +1 +3 1014.7 934.0
09 19.09 штиль 0 50 км 8/0
[Cs]
+0.4 -3.2 77 -1 -1 1014.3 933.0 +2.5
12 19.09 С 2 50 км 3/0
[Ci fib]
-2.1 -4.6 83 -6 -6 1013.9 931.9

 

Местоположение метеостанции Иэма (Якутия, Россия): широта 65.30 долгота 135.80 высота над уровнем моря 675 м.

В архиве по умолчанию представлена погода в Иэме за последнюю неделю. Архивные данные за месяц целиком и за предыдущие месяцы, начиная с января 2011 года, Вы можете получить, выбрав интересующий диапазон дат из раскрывающегося списка и нажав кнопку "Ввод!".

Внимание! Время в таблицах - всемирное. Для получения местного времени необходимо прибавить поправку, которая в Иэме равна 9 ч.

Смотрите также архив погоды в соседних городах и на ближайших метеорологических станциях:

Погода в Томпо (Якутия, Россия) (150 км)
Погода в Усть-Чарках (Якутия, Россия) (171 км)
Погода в Екюччю (Якутия, Россия) (250 км)
Погода в Батагае (Якутия, Россия) (267 км)
Погода в Себян-Кюеле (Якутия, Россия) (269 км)
Погода в Верхоянске (Якутия, Россия) (274 км)
Погода в Крест-Хальджае (Якутия, Россия) (284 км)
Погода в Теплом Ключе (Якутия, Россия) (284 км)
Погода в Верхоянском Перевозе (Якутия, Россия) (286 км)
Погода в Восточной (Якутия, Россия) (294 км)

Пояснения к столбцам:

Ветер - указаны скорость ветра в м/с - средняя за 10 мин, порывы в срок и между сроками (в фигурных скобках) и направление, откуда дует ветер: С - северный, СВ - северо-восточный, В - восточный, ЮВ - юго-восточный, Ю - южный, ЮЗ - юго-западный, З - западный, СЗ - северо-западный.
Видимость - горизонтальная дальность видимости в метрах или километрах. При видимости от 1 до 10 км при отсутствии осадков обычно наблюдается дымка, при ухудшении видимости до 1 км и менее - туман. В сухую погоду видимость может ухудшаться дымом, пылью или мглою.
Явления - указаны атмосферные явления, наблюдавшиеся в срок или в последний час перед сроком; фигурными скобками обозначены явления, наблюдавшиеся между сроками (за 1-3 часа до срока); квадратными скобками обозначены град или гололедные отложения с указанием их диаметра в мм.
Облачность - указаны через наклонную черту общая и нижняя облачность в баллах и высота нижней границы облаков в метрах; квадратными скобками обозначены формы облаков: Ci - перистые, Cs - перисто-слоистые, Cc - перисто-кучевые, Ac - высококучевые, As - высокослоистые, Sc - слоисто-кучевые, Ns - слоисто-дождевые, Cu - кучевые, Cb - кучево-дождевые. Подробнее классификацию облаков см. в Атласе облаков (PDF).
T - Температура воздуха - температура, измеренная на высоте 2 м над землей.
Td - Температура точки росы - температура, при понижении до которой содержащийся в воздухе водяной пар достигнет насыщения.
f - Относительная влажность воздуха - влажноcть воздуха, измеренная на высоте 2 м над землей.
Te - Эффективная температура - температура, которую ощущает одетый по сезону человек в тени. Характеристика душности погоды. При расчете учитывается влияние влажности воздуха и скорости ветра на теплоощущения человека.
Tes - Эффективная температура на солнце - температура, которую ощущает человек, с поправкой на солнечный нагрев. Характеристика знойности погоды. Зависит от высоты солнца над горизонтом, облачности и скорости ветра. Ночью, в пасмурную погоду, а также при ветре 12 м/с и более поправка равна нулю.
P - Атмосферное давление - приведенное к уровню моря атмосферное давление.
Po - Атмосферное давление - измеренное на уровне метеостанции атмосферное давление.
Tmin - Минимальная температура - минимум температуры воздуха на высоте 2 м над землей.
Tmax - Максимальная температура - максимум температуры воздуха на высоте 2 м над землей.
R - Количество осадков - Количество выпавших осадков за период времени, мм. При наведении курсора мыши на число - период времени, за который выпало указанное количество осадков.
R24 - Количество осадков - Количество выпавших осадков за 24 часа, мм.
S - Снежный покров - Высота снежного покрова, см. При наведении курсора мыши на число - состояние снежного покрова и степень покрытия местности в баллах.